Lapse_Rate
7.5 7.5 7.3 7.2 7.1 6.6 6.5 5.4 6.4 6.9 7.0 6.9 7.0 7.0 6.7 6.4 6.2 5.9 5.5 5.7 5.4 5.2 5.4 4.8 4.9 5.3 5.2 5.1 5.0 5.0 5.3 5.3 5.3 5.6 5.7 5.5 5.3 5.3 5.2 5.1 4.9 4.6 4.6
7.5 7.4 6.8 7.1 6.3 6.4 5.5 5.9 6.5 6.9 6.7 6.7 7.1 6.9 6.7 6.4 6.0 5.6 5.4 5.4 5.5 5.4 5.3 5.0 5.2 5.1 4.9 5.1 5.1 5.2 5.4 5.5 5.4 5.6 5.5 5.3 5.1 5.0 4.7 4.4 4.3 4.3 4.6
6.5 6.8 7.2 7.0 7.0 6.8 6.8 7.0 7.0 7.0 7.1 7.1 7.0 7.0 6.7 6.1 5.9 5.7 5.5 5.6 5.3 4.9 5.4 5.3 5.1 5.1 5.0 5.2 5.2 5.2 5.0 5.0 5.1 5.0 5.3 5.2 5.0 4.7 4.4 4.2 4.6 5.1 5.7
7.3 7.4 7.5 7.5 7.3 7.1 7.0 7.0 7.0 7.3 7.4 7.3 7.1 6.9 6.3 6.0 5.9 5.9 5.7 5.4 4.9 4.9 4.9 5.1 4.9 4.8 4.9 5.0 5.0 4.9 5.0 5.1 5.2 5.2 5.2 5.2 5.0 5.0 4.3 4.5 4.6 4.8 5.4
7.3 7.4 7.4 7.5 7.4 7.4 7.4 7.3 7.4 7.4 7.3 7.0 6.8 6.6 6.5 6.2 5.8 5.7 5.6 5.1 4.8 4.7 4.7 5.0 5.0 5.0 5.0 4.9 5.0 5.1 5.1 5.0 4.9 4.9 4.9 4.8 4.9 4.9 4.8 4.8 5.0 5.4 5.8
7.8 7.6 7.5 7.5 7.6 7.6 7.4 7.4 7.5 7.2 7.1 7.1 7.0 6.6 6.2 6.0 5.8 5.7 5.5 5.3 5.4 4.8 5.0 4.9 4.9 5.0 5.1 4.9 4.7 4.7 4.7 4.9 5.0 4.9 4.9 4.9 5.0 4.8 4.8 4.8 5.2 5.6 6.0
7.7 7.6 7.5 7.6 7.5 7.5 7.6 7.5 7.3 7.4 7.3 7.0 6.6 6.4 6.1 6.0 5.9 5.8 5.7 5.5 5.0 4.9 5.1 4.9 4.9 4.9 4.8 4.9 4.9 4.9 5.0 5.0 5.1 5.0 5.0 5.2 5.1 5.2 5.2 5.3 5.5 5.9 6.2
7.5 7.6 7.6 7.4 7.4 7.4 7.4 7.3 7.4 7.2 6.9 6.7 6.5 6.3 6.3 6.0 5.8 5.6 5.3 5.1 4.9 4.9 5.0 5.1 4.9 4.8 4.7 4.6 4.7 4.9 5.0 5.1 5.0 5.1 5.3 5.5 5.6 5.6 5.5 5.5 5.8 6.0 6.2
7.6 7.6 7.6 7.5 7.4 7.4 7.4 7.4 7.2 6.9 6.7 6.6 6.5 6.2 6.0 5.7 5.5 5.2 5.0 5.0 5.0 5.0 5.1 4.9 4.8 4.7 4.7 4.6 4.8 4.8 4.8 5.1 5.3 5.5 5.6 5.6 5.6 5.6 5.7 5.8 6.0 6.1 6.3
7.6 7.6 7.4 7.3 7.5 7.5 7.3 7.1 6.8 6.7 6.6 6.3 5.9 5.8 5.6 5.5 5.4 5.3 5.4 5.1 5.0 4.8 4.6 4.7 4.6 4.5 4.5 4.4 4.6 4.7 4.9 5.1 5.2 5.5 5.6 5.8 5.6 5.8 6.0 5.9 5.9 6.2 6.7
7.3 7.1 7.2 7.3 7.3 7.2 7.0 6.7 6.6 6.5 6.2 6.1 6.0 5.8 5.6 5.5 5.4 5.2 5.0 4.7 4.8 4.7 4.6 4.5 4.5 4.4 4.5 4.6 4.7 4.8 4.9 5.0 5.1 5.2 5.5 5.7 5.7 5.8 6.1 6.1 6.4 6.6 6.9
6.9 7.1 7.1 7.2 7.1 6.9 6.7 6.5 6.6 6.5 6.3 6.0 5.8 5.7 5.6 5.4 5.2 4.9 4.6 4.7 4.5 4.6 4.6 4.5 4.5 4.4 4.4 4.5 4.6 4.9 4.9 4.9 5.0 5.3 5.5 5.6 5.8 6.0 6.3 6.4 6.9 7.0 7.1
7.0 7.0 7.0 6.8 6.7 6.7 6.6 6.5 6.4 6.2 5.8 5.6 5.6 5.5 5.3 5.0 4.9 4.7 4.6 4.5 4.5 4.6 4.5 4.4 4.4 4.4 4.3 4.5 4.8 5.1 5.1 5.0 5.1 5.5 5.7 5.8 5.9 6.4 6.2 6.6 7.0 7.2 7.8
6.8 6.7 6.7 6.8 6.5 6.3 6.3 6.2 6.0 5.7 5.5 5.3 5.2 5.0 4.9 4.9 4.7 4.5 4.6 4.5 4.4 4.4 4.4 4.3 4.4 4.5 4.6 5.0 5.2 5.1 5.0 5.1 5.3 5.6 6.1 5.9 6.2 6.6 6.7 7.2 7.4 7.7 8.0
6.7 6.7 6.7 6.5 6.4 6.2 6.2 5.9 5.6 5.7 5.5 5.1 4.7 4.6 4.5 4.4 4.4 4.3 4.4 4.3 4.3 4.5 4.5 4.5 4.7 4.8 5.1 5.3 5.2 5.1 5.4 5.4 5.6 5.9 6.0 6.0 6.4 6.8 7.3 7.2 7.9 7.9 8.2
6.7 6.7 6.7 6.7 6.3 6.1 5.9 5.8 5.5 5.0 4.7 4.4 4.2 4.1 4.0 4.1 4.3 4.2 4.2 4.3 4.4 4.4 4.5 4.8 4.9 5.1 5.3 5.3 5.2 5.5 5.6 5.7 5.9 6.0 6.2 6.1 6.5 6.8 7.4 7.4 7.4 7.7 8.0
6.7 6.5 6.0 5.9 5.9 6.0 5.8 5.4 4.6 3.7 3.2 3.3 3.3 3.5 3.4 3.7 3.9 4.0 4.3 4.3 4.3 4.4 4.8 5.0 5.2 5.2 5.2 5.2 5.5 5.6 5.8 5.9 6.1 6.1 6.4 6.4 6.5 6.7 7.1 7.4 7.6 7.9 8.1
6.4 6.0 5.9 5.9 5.7 5.3 4.7 3.9 2.8 2.7 2.9 3.4 3.5 3.0 3.1 3.3 3.0 3.4 4.0 4.3 4.4 4.7 5.0 5.1 5.1 5.1 5.2 5.6 5.7 5.8 5.7 5.8 6.1 6.2 6.3 6.4 6.7 7.0 7.2 7.4 7.8 8.1 8.2
5.6 5.1 4.9 4.7 4.6 4.1 3.3 2.3 2.4 3.4 3.6 3.7 3.6 3.6 3.7 3.6 3.4 3.8 4.1 4.4 4.7 5.1 5.0 4.9 5.0 5.3 5.7 5.7 5.7 5.6 5.6 5.8 6.0 6.3 6.3 6.4 6.5 7.0 7.3 7.6 7.9 8.2 8.1
4.7 4.5 4.5 4.2 3.4 3.1 3.7 3.9 3.4 3.4 3.4 3.5 3.4 3.6 3.6 3.3 3.6 3.8 4.1 4.4 4.7 4.7 4.7 4.8 5.3 5.7 5.8 5.8 5.7 5.5 5.5 5.7 6.0 6.3 6.3 6.4 6.5 7.0 7.2 7.5 8.0 8.6 8.6
4.2 3.7 3.3 3.9 4.1 3.8 3.3 3.2 3.5 3.6 3.5 3.6 3.8 3.5 3.2 3.2 3.3 3.7 4.1 4.4 4.5 4.6 4.9 5.4 5.6 5.6 5.7 5.6 5.4 5.3 5.3 5.7 6.0 6.3 6.3 6.5 6.4 6.8 7.1 7.5 8.4 8.4 8.3
3.7 3.8 3.8 3.5 3.5 3.4 3.5 3.5 3.6 3.6 3.7 3.6 3.4 3.4 3.5 3.6 4.0 4.3 4.4 4.4 4.7 5.0 5.2 5.4 5.5 5.5 5.4 5.3 5.2 5.3 5.5 5.9 6.2 6.4 6.4 6.5 6.5 6.7 7.2 7.8 8.3 8.4 8.4
3.1 3.4 3.4 3.4 3.5 3.6 3.6 3.7 3.6 3.5 3.5 3.3 3.3 3.4 3.7 4.0 4.1 4.1 4.3 4.6 4.7 5.0 5.2 5.2 5.3 5.2 5.0 5.0 5.1 5.3 5.8 6.2 6.3 6.4 6.5 6.5 6.5 6.8 7.3 8.0 8.4 8.5 8.4
3.1 3.3 3.4 3.6 3.6 3.7 3.6 3.5 3.3 3.2 3.2 3.3 3.5 3.7 3.8 3.8 4.0 4.3 4.4 4.7 4.8 5.0 4.9 5.0 5.0 4.9 4.9 5.0 5.2 5.6 6.1 6.3 6.4 6.5 6.5 6.6 6.5 6.8 7.3 8.1 8.5 8.5 8.3
3.4 3.5 3.5 3.4 3.4 3.3 3.2 3.2 3.1 3.2 3.4 3.5 3.5 3.6 3.6 3.8 4.0 4.2 4.5 4.6 4.8 4.7 4.7 4.8 4.7 4.8 4.9 5.2 5.5 6.0 6.3 6.3 6.4 6.4 6.5 6.6 6.6 7.0 7.6 8.3 8.5 8.5 8.3
3.4 3.4 3.4 3.3 3.3 3.2 3.3 3.3 3.2 3.1 3.3 3.3 3.2 3.2 3.5 3.7 3.9 4.1 4.3 4.6 4.5 4.6 4.6 4.6 4.7 4.9 5.2 5.5 6.0 6.3 6.4 6.4 6.4 6.4 6.5 6.6 6.8 7.1 7.8 8.4 8.5 8.5 8.4
Wind_Speed
21 19 16 12 8 5 7 5 5 5 9 10 10 9 9 9 8 8 8 9 8 7 5 4 2 2 3 4 4 4 4 3 6 5 4 5 4 6 12 19 24 23 25
17 16 7 6 6 8 11 9 8 7 7 9 9 9 9 9 9 10 9 7 8 6 4 2 4 4 5 6 5 6 6 6 6 13 5 4 7 6 10 7 14 20 17
7 9 9 9 8 9 11 8 9 9 9 9 9 9 10 10 9 8 7 8 5 6 4 4 5 4 5 5 5 5 6 6 5 7 10 4 5 4 6 5 4 8 15
9 10 12 13 11 10 10 10 10 9 9 9 9 9 9 9 9 8 7 6 5 4 4 4 5 6 7 7 7 6 7 6 6 7 7 5 4 6 3 4 5 4 5
10 11 12 12 11 10 10 11 10 10 9 10 10 9 9 8 6 8 7 5 4 3 4 5 5 6 10 10 7 6 6 7 5 7 8 8 6 3 5 5 5 4 3
12 11 11 11 11 11 12 11 10 10 9 9 8 8 8 5 12 10 6 4 4 2 4 4 5 7 7 11 10 10 4 5 5 4 7 8 11 4 3 5 6 4 6
12 12 12 12 12 11 11 11 10 9 9 8 7 8 7 6 9 8 7 3 1 2 4 5 5 6 9 8 11 12 10 11 5 6 9 8 10 8 10 9 6 8 7
12 12 12 13 13 12 11 10 9 8 9 8 6 6 5 3 10 8 7 4 5 5 6 6 5 6 7 11 11 11 11 10 10 8 8 11 11 9 9 11 13 11 7
12 12 13 12 13 13 13 12 10 9 6 5 6 10 10 8 12 12 9 6 5 5 5 4 5 5 9 16 10 12 13 12 19 22 24 26 27 28 26 11 9 8 6
12 11 11 12 12 12 11 11 7 6 5 7 10 10 13 9 12 12 9 4 5 3 3 3 6 7 13 16 11 11 13 13 13 14 12 14 19 18 23 14 10 8 5
12 13 11 10 12 11 8 4 5 8 10 8 11 9 9 9 10 15 13 4 2 1 2 3 3 13 16 17 17 9 11 16 15 12 12 11 10 10 8 10 10 8 6
13 11 10 11 9 8 8 7 10 9 9 6 8 7 6 6 12 13 12 9 7 3 3 3 5 17 16 16 11 16 20 12 9 10 11 12 10 9 7 8 12 14 13
12 10 9 10 9 8 9 8 7 7 6 5 5 6 6 5 5 11 11 10 8 3 2 9 15 16 15 6 13 17 11 7 9 11 10 12 10 8 11 7 9 12 9
9 8 6 9 9 7 6 6 6 5 5 5 5 5 4 4 3 3 4 3 6 4 4 6 7 9 4 4 5 8 6 7 9 9 11 10 11 8 9 9 6 4 3
9 8 8 7 8 8 7 6 6 4 4 6 3 4 4 3 3 3 5 3 2 3 3 3 3 2 5 5 6 7 7 7 9 9 10 11 11 13 7 1 1 2 3
8 7 5 7 7 8 8 7 13 10 14 14 12 7 5 8 5 5 7 7 9 9 2 1 2 2 3 6 6 7 6 9 9 9 10 10 11 10 11 2 2 3 5
9 8 6 6 5 7 6 7 6 5 9 10 10 10 10 7 4 4 6 6 9 7 2 2 1 2 2 5 6 7 8 8 11 8 9 10 10 10 12 9 2 3 4
10 10 7 5 6 6 5 4 4 5 4 3 7 7 8 6 2 5 6 4 2 3 1 1 1 2 3 5 6 7 8 8 8 9 9 9 10 9 10 11 7 6 6
10 7 7 6 6 6 5 5 4 3 2 3 2 3 7 5 5 7 7 1 1 1 2 3 1 2 2 4 2 4 4 6 7 7 9 8 9 9 10 10 12 11 7
10 13 9 5 5 5 4 3 2 2 2 2 2 4 2 2 1 2 2 1 2 2 1 2 2 3 2 3 2 2 6 7 7 7 8 7 8 8 9 11 11 10 7
6 5 7 5 4 3 3 2 2 2 2 1 2 2 3 2 1 1 1 1 1 1 2 1 2 2 2 2 5 5 7 6 6 7 7 8 9 9 9 9 9 10 10
5 4 4 3 3 3 2 2 2 2 2 2 2 2 2 1 1 1 0 0 1 1 1 1 2 2 3 4 6 6 7 6 7 7 8 8 9 8 8 9 10 10 9
4 4 3 3 3 2 1 2 1 2 2 1 1 1 1 1 1 1 1 1 0 1 5 6 2 2 11 13 13 10 8 9 8 9 9 9 7 9 9 9 9 9 9
5 5 4 2 2 1 2 2 2 3 2 1 1 1 2 2 1 2 1 1 1 4 6 8 11 9 10 12 14 15 16 18 18 16 14 10 10 11 9 9 9 10 10
4 3 3 3 3 2 2 2 2 2 2 2 2 2 2 2 2 3 3 2 4 3 8 12 12 12 16 18 21 22 22 24 22 23 19 13 13 14 11 9 9 9 10
4 3 2 2 2 2 2 2 2 2 2 2 2 1 1 2 2 2 3 3 2 5 8 11 13 18 21 19 20 22 24 27 25 26 21 13 11 10 9 10 12 8 10
Wind_Direction
204 210 216 207 205 117 138 131 183 152 151 139 135 139 147 145 141 130 130 135 140 150 159 171 229 319 266 256 253 245 243 236 268 272 234 244 253 251 262 232 223 213 214
211 212 165 68 72 111 107 155 145 144 122 117 126 137 139 140 137 138 143 152 141 150 152 171 242 260 255 263 253 250 251 245 256 272 245 242 235 240 236 231 230 230 219
297 151 130 111 114 115 117 125 125 127 117 123 130 134 132 134 134 128 142 148 153 148 166 200 237 253 265 261 257 256 256 260 240 255 273 239 250 235 246 233 210 252 224
183 128 119 119 119 118 123 121 115 115 114 114 122 128 130 130 130 137 136 135 136 176 204 225 244 249 255 267 269 270 268 253 248 255 264 268 230 251 217 221 248 228 241
126 110 108 114 115 116 109 104 107 109 115 120 120 117 125 127 137 137 140 152 163 190 241 262 263 258 260 261 274 291 297 295 285 280 280 280 270 268 234 252 245 257 254
104 108 111 112 113 114 111 111 113 113 114 116 116 122 121 123 143 147 141 146 159 241 281 309 313 303 353 17 22 8 17 332 305 287 297 289 287 254 247 237 255 240 252
119 127 130 128 120 120 120 121 120 119 117 120 124 129 140 137 154 146 139 122 185 338 16 17 2 7 6 358 350 345 340 328 277 280 289 287 291 289 286 267 235 239 234
134 136 130 129 124 128 128 120 119 124 131 139 144 138 111 124 112 116 117 74 66 49 42 38 25 0 350 352 342 333 325 315 306 296 290 295 291 292 283 281 269 250 231
138 138 138 132 128 130 133 138 140 146 147 155 143 115 105 85 87 83 84 68 61 41 19 0 356 337 341 346 334 321 317 308 300 293 288 287 286 285 281 278 261 234 228
143 136 129 133 133 136 133 142 143 143 134 100 109 107 109 104 97 103 95 95 69 17 330 326 352 349 340 337 326 315 308 304 307 302 291 286 286 288 286 270 257 229 226
130 129 134 136 137 140 138 135 124 115 109 104 112 129 119 119 102 96 90 96 144 177 354 353 341 336 334 330 328 312 306 313 309 312 303 290 285 278 285 270 247 224 208
137 140 141 142 139 140 129 116 118 117 116 116 115 112 118 110 107 93 82 70 52 45 3 327 316 328 327 327 328 336 335 325 326 315 322 301 283 280 273 263 244 232 224
132 135 134 128 125 122 118 120 114 115 120 129 126 123 127 112 82 75 58 44 34 38 341 328 327 324 322 319 344 344 338 339 328 327 315 321 288 272 284 274 248 221 207
126 122 106 111 115 102 101 108 113 118 121 124 122 126 118 111 93 56 40 22 9 350 329 318 304 302 298 326 341 344 343 338 333 323 324 313 313 295 282 277 221 171 194
126 121 124 113 99 87 75 98 100 57 104 118 108 118 111 96 74 57 17 351 301 307 305 316 317 330 349 349 348 348 341 337 336 333 325 329 327 326 290 170 25 147 190
117 118 106 109 112 110 107 89 72 94 98 100 107 113 100 115 85 18 350 341 336 336 359 323 317 333 346 347 348 343 339 333 331 329 332 324 327 331 322 293 203 190 214
106 103 92 82 105 117 121 127 125 96 106 120 123 129 144 146 119 345 341 330 346 34 48 342 326 335 319 353 345 337 331 331 327 330 328 326 325 325 337 307 252 220 213
92 73 81 85 91 94 104 121 131 147 157 161 180 175 166 141 58 348 330 336 25 14 21 349 315 319 347 347 336 330 326 327 328 327 326 325 326 335 329 330 281 241 227
84 78 72 70 70 72 67 66 74 83 92 132 180 165 133 120 34 11 9 80 133 5 24 5 320 323 339 332 311 309 300 318 318 325 320 319 328 331 327 322 325 267 219
72 76 75 71 67 68 66 68 91 80 69 71 84 120 129 72 23 343 326 21 42 50 353 322 327 351 322 312 291 292 328 319 314 320 314 317 324 324 320 319 321 323 303
74 73 75 80 87 83 64 63 68 70 66 70 110 141 146 120 224 236 289 44 83 344 302 321 317 305 291 297 318 327 307 300 303 307 311 319 313 314 317 316 313 311 315
95 85 86 89 105 83 66 30 61 49 5 57 65 143 221 226 248 121 14 30 275 273 295 305 291 275 293 325 310 301 296 300 307 309 306 302 304 306 315 312 313 318 320
83 86 94 77 73 76 348 283 46 39 72 56 39 355 341 27 60 15 283 281 336 359 335 328 335 319 311 299 296 300 310 302 298 295 295 297 304 307 304 304 305 309 310
56 50 51 74 85 43 357 49 0 346 342 332 353 358 26 27 347 326 353 356 360 317 351 2 329 302 307 315 308 301 296 292 288 288 289 293 292 296 293 292 294 298 300
64 56 42 28 26 8 3 355 20 5 355 14 18 42 15 4 15 5 339 319 334 34 344 333 322 318 313 307 303 299 294 293 293 294 289 281 278 279 278 280 286 290 289
55 58 45 10 6 18 11 349 344 353 358 24 43 351 10 19 6 355 313 351 19 340 324 323 318 312 308 309 306 307 313 307 303 298 295 284 277 274 271 272 275 277 285